SCP
0 0 0 0 0 0 0 0 0 0 0 0 0 0 0 -0 -0 -0 -0 -0 -0 -0 -0 -0 -0 -0 0 0 0 0 0 0 0 0 0 0 0 0 0 0 0 0 0 0 0 0 0
0 0 0 0 0 0 0 0 0 0 0 0 0 0 -0 -0 -0 -0 -0 -0 -0 -0 -0 0 0 -0 0 0 0 0 0 0 0 0 0 0 0 0 0 0 0 0 0 0 0 0 0
-0 0 0 0 0 0 0 0 0 0 0 0 0 0 -0 -0 -0 -0 -0 -0 -0 -0 -0 -0 -0 0 -0 0 0 0 0 0 0 0 0 0 0 0 0 0 0 0 0 0 0 0 0
-0 0 0 0 0 0 0 0 -0 0 0 0 0 0 0 -0 -0 -0 -0 -0 -0 -0 -0 -0 0 0 0 0 0 0 0 0 0 0 0 0 0 0 0 0 0 0 0 0 0 0 0
0 -0 0 0 0 0 0 -0 0 0 0 0 0 0 0 0 -0 -0 0 0 -0 -0 0 -0 0 0 0 0 0 0 0 0 0 0 0 0 0 0 0 0 0 0 0 0 0 0 0
0 0 0 0 0 0 0 -0 0 0 0 0 0 0 0 0 -0 -0 0 0 0 0 0 0 0 0 0 0 0 0 0 0 0 0 0 0 0 0 0 0 0 0 0 0 0 0 0
0 0 0 0 0 0 0 0 0 0 0 0 0 0 0 0 0 -0 0 0 0 0 0 0 0 0 0 0 0 0 0 0 0 0 0 0 0 0 0 0 0 0 0 0 0 0 0
0 0 0 0 0 0 0 0 0 0 0 0 0 0 0 0 0 0 0 0 0 0 0 0 0 0 0 0 0 0 0 0 0 0 0 0 0 0 0 0 0 0 0 0 0 0 0
0 0 0 0 0 0 0 0 0 0 0 0 0 0 0 0 0 0 0 0 0 0 0 0 0 0 0 0 0 0 0 0 0 0 0 0 0 0 0 0 0 0 0 0 0 0 0
0 0 0 0 0 0 0 0 0 0 0 0 0 0 0 0 0 0 0 0 0 0 0 0 0 0 0 0 0 0 0 0 0 0 0 0 0 0 0 0 0 0 0 0 0 0 0
0 0 0 0 0 0 0 0 0 0 0 0 0 0 0 0 0 0 0 -0 0 0 0 0 0 0 0 0 0 0 0 0 0 0 0 0 0 0 0 0 0 0 0 0 0 0 0
0 0 0 0 0 0 0 0 0 0 0 0 0 0 0 0 0 0 -0 0 0 0 0 0 0 0 0 0 0 0 0 0 0 0 0 0 0 0 0 0 0 0 0 0 0 0 0
0 0 0 0 0 0 0 0 0 0 0 0 0 0 0 0 0 0 0 0 0 0 0 0 0 0 0 0 0 0 0 0 0 0 0 0 0 0 0 0 0 0 0 0 0 0 0
0 0 0 0 0 0 0 0 0 0 0 0 0 0 0 0 0 0 0 0 0 0 0 0 0 0 0 0 0 0 0 0 0 0 0 0 0 0 0 0 0 0 0 0 0 0 0
0 0 0 0 0 0 0 0 0 0 0 0 0 0 0 0 0 0 0 0 0 0 0 0 0 0 0 0 0 0 0 0 0 0 0 0 0 0 0 0 0 0 0 0 0 0 0
0 0 0 0 0 0 0 0 0 0 0 0 0 0 0 0 0 0 0 0 0 0 0 0 0 0 0 0 0 0 0 0 0 0 0 0 0 0 0 0 0 0 0 0 0 0 0
0 0 0 0 0 0 0 0 0 0 0 0 0 0 0 0 0 0 0 0 0 0 0 0 0 0 0 0 0 0 0 0 0 0 0 0 0 0 0 0 0 0 0 0 0 0 0
0 0 0 0 0 0 0 0 0 0 0 0 0 0 0 0 0 0 0 0 0 0 0 0 0 0 0 0 0 0 0 0 0 0 0 0 0 0 0 0 0 0 0 -0 0 -0 0
0 0 0 0 0 0 0 0 0 0 0 0 0 0 0 0 0 0 0 0 0 0 0 0 0 0 0 0 0 0 0 0 0 0 0 0 0 0 0 0 0 0 0 0 -0 0 0
0 0 0 0 0 0 0 0 0 0 0 0 0 0 0 0 0 0 0 0 0 0 0 0 0 0 0 0 0 0 0 0 0 0 0 0 0 0 0 0 0 0 0 0 0 0 -0
0 0 0 0 0 0 0 0 0 0 0 0 0 0 0 0 0 0 0 0 0 0 0 0 0 0 0 0 0 0 0 0 0 0 0 0 0 0 0 0 0 0 0 0 -0 -0 0
0 0 0 0 0 0 0 0 0 0 0 0 0 0 0 0 0 0 0 0 0 0 0 0 0 0 0 0 0 0 0 0 0 0 0 0 0 0 0 0 0 0 0 0 -0 -0 0
0 0 0 0 0 0 0 0 0 0 0 0 0 0 0 0 0 0 0 0 0 0 0 0 0 0 0 0 0 0 0 0 0 0 0 0 0 0 0 0 0 0 0 0 0 0 0
0 0 0 0 0 0 0 0 0 0 0 0 0 0 0 0 0 0 0 0 0 0 0 0 0 0 0 0 0 0 0 0 0 0 0 0 0 0 0 0 0 0 0 0 0 0 -0
0 0 0 0 0 0 0 0 0 0 0 0 0 0 0 0 0 0 0 0 0 0 0 0 0 0 0 0 0 0 0 0 0 0 0 0 0 0 0 0 0 0 0 0 0 0 -0
0 0 0 0 0 0 0 0 0 0 0 0 0 0 0 0 0 0 0 0 0 0 0 0 0 0 0 0 0 0 0 0 0 0 0 0 0 0 0 0 0 0 0 0 0 0 0
0 0 0 0 0 0 0 0 0 0 0 0 0 0 0 0 0 0 0 0 0 0 0 0 0 0 0 0 0 0 0 0 0 0 0 0 0 0 0 0 0 0 0 0 0 0 0
0 0 0 0 0 0 0 0 0 0 0 0 0 0 0 0 0 0 0 0 0 0 0 0 0 0 0 0 0 0 0 0 0 0 0 0 0 0 0 0 0 0 0 0 0 0 0
0 0 0 0 0 0 0 0 0 0 0 0 0 0 0 0 0 0 0 0 0 0 0 0 0 0 0 0 0 0 0 0 0 0 0 0 0 0 0 0 0 0 0 0 0 0 0
Wind_Speed_500mb
20 15 10 7 6 7 7 9 11 12 13 14 15 17 19 21 22 23 25 24 23 20 20 21 17 13 13 21 21 34 37 32 30 25 31 21 30 10 7 7 8 7 11 19 23 20 12
20 17 12 8 6 5 5 8 10 10 12 15 16 18 19 21 23 24 24 22 20 16 23 27 36 24 19 17 32 34 34 29 27 29 25 28 17 13 6 6 7 12 13 24 19 18 13
21 19 14 10 7 3 3 5 8 10 11 12 14 16 18 20 21 23 22 18 18 17 10 7 6 15 46 26 35 32 27 28 25 26 27 19 17 15 8 4 16 7 9 7 30 29 11
24 21 16 13 8 4 1 3 6 8 9 10 12 13 16 20 22 22 20 17 13 16 14 10 8 11 15 30 35 35 21 14 18 15 18 16 14 10 10 12 7 10 8 7 9 35 17
27 25 19 16 11 7 3 1 3 6 7 8 10 12 16 19 21 22 15 17 16 12 22 21 16 9 10 34 48 42 31 31 19 13 21 16 13 14 18 7 8 15 6 10 12 17 9
28 27 21 17 13 10 6 4 4 6 7 7 9 12 15 18 20 21 13 3 21 19 4 7 20 8 25 28 45 48 20 32 20 8 10 18 13 8 11 15 5 8 8 7 5 13 11
31 28 22 21 17 14 10 6 7 7 8 8 10 12 13 16 18 18 15 5 3 4 41 24 18 10 12 24 37 49 28 23 20 24 11 17 16 12 9 7 4 5 2 6 7 4 11
34 28 25 25 22 19 14 10 8 9 10 9 9 11 13 14 15 19 16 7 9 8 18 17 17 24 16 21 14 52 29 14 24 11 12 12 12 14 7 8 6 6 3 9 9 7 6
40 37 34 31 27 24 19 15 11 8 10 11 10 11 13 14 10 15 21 16 17 11 4 8 16 13 15 14 16 34 33 12 15 13 14 10 6 16 8 12 12 5 5 5 7 12 5
40 43 41 36 32 28 24 19 14 10 10 11 12 11 11 15 7 16 17 13 11 5 9 13 13 13 18 9 9 31 30 10 12 7 6 4 13 10 11 7 8 4 2 6 10 7 3
46 40 36 37 35 32 29 24 17 14 10 10 11 11 12 13 9 11 13 12 6 4 8 6 10 10 13 10 11 21 30 12 7 8 6 6 13 11 10 7 6 8 11 6 3 4 5
46 47 42 35 31 33 33 29 24 16 12 12 13 10 9 10 11 12 14 7 4 12 8 11 11 16 9 17 11 14 15 15 8 6 8 4 7 4 4 7 2 12 5 9 7 4 7
50 51 48 43 37 33 36 33 30 24 17 15 14 11 8 8 8 11 12 2 10 11 5 12 6 9 5 11 10 14 8 18 9 10 14 14 7 10 10 8 10 15 10 6 9 9 7
58 56 54 50 42 38 35 35 31 27 23 19 14 11 9 7 8 10 12 9 9 4 9 2 4 5 8 12 9 13 5 7 10 10 7 6 12 12 16 7 7 8 6 7 5 5 8
60 54 51 50 45 43 39 35 33 30 27 21 16 12 11 8 6 6 7 8 13 12 7 10 6 10 7 5 3 8 8 2 2 4 10 7 10 9 5 4 4 13 8 5 6 6 3
61 62 55 51 53 49 45 41 38 35 33 24 16 11 13 9 7 1 7 8 3 7 8 6 7 5 4 5 5 5 6 2 4 5 4 3 10 4 9 5 3 5 7 7 6 6 7
70 69 68 57 51 51 50 48 44 42 37 27 17 6 7 11 6 1 6 12 7 8 3 7 10 7 5 4 2 3 4 4 3 3 8 1 4 12 5 7 5 8 7 5 2 2 2
70 66 59 62 62 59 56 58 54 49 43 35 17 3 9 16 3 3 4 11 8 10 6 4 7 6 9 9 5 4 7 6 4 8 5 4 2 9 14 9 2 4 5 2 6 10 3
68 68 64 59 61 62 60 61 64 59 58 49 16 10 13 24 5 3 4 3 8 7 7 8 9 5 4 9 1 6 7 2 5 5 8 9 3 7 13 9 5 2 3 3 3 1 7
66 67 67 66 68 64 63 58 74 68 63 56 16 5 8 16 8 8 8 6 5 11 9 8 8 10 6 3 3 5 5 3 3 5 9 8 4 10 10 9 4 6 6 7 4 3 4
74 68 68 68 68 67 63 55 59 71 73 68 22 9 12 7 11 12 11 14 8 10 7 13 3 9 10 5 4 6 3 4 3 10 5 6 5 4 13 16 6 14 17 17 21 15 10
84 76 71 71 69 64 61 63 62 74 85 74 26 17 15 9 10 17 12 11 18 7 16 10 11 14 14 12 15 13 12 8 8 5 3 3 5 3 9 10 7 20 26 22 24 25 19
90 86 77 76 74 70 64 65 66 89 93 39 42 26 16 13 13 8 11 11 15 17 19 9 24 12 15 19 15 7 12 8 9 11 8 6 5 6 10 6 11 13 18 28 16 7 12
72 97 89 79 78 75 73 70 77 91 94 79 73 50 17 6 13 9 10 23 12 22 3 8 13 12 8 17 28 17 13 10 4 2 3 8 6 2 8 11 7 10 5 6 14 11 22
60 77 102 89 81 77 78 76 81 88 89 101 76 63 28 6 24 10 19 9 12 14 5 11 12 10 27 21 7 10 9 12 8 7 4 1 6 3 1 6 15 9 9 12 14 14 29
70 62 73 105 87 81 74 74 79 98 83 93 97 77 38 22 21 32 20 26 9 8 4 5 12 39 24 9 6 9 8 10 6 11 5 8 8 7 3 2 9 10 5 12 5 9 22
68 70 70 70 111 89 68 81 89 94 89 93 95 102 64 22 24 48 17 25 26 18 6 12 20 16 14 5 4 6 7 2 5 16 12 8 8 8 5 9 18 15 8 16 7 10 20
61 69 67 70 78 119 87 74 89 93 94 111 104 92 88 24 32 57 56 37 33 37 10 22 14 8 4 4 8 7 6 12 3 6 13 16 17 9 6 7 14 24 16 13 8 6 14
46 65 67 51 62 95 120 72 88 92 82 103 79 93 89 48 20 59 63 55 58 59 56 61 16 18 28 6 2 6 4 4 8 6 2 7 14 13 22 14 9 59 16 42 7 14 13
Wind_Direction_500mb
174 174 165 141 115 91 68 55 41 31 28 25 19 19 17 14 10 8 6 5 5 2 37 42 52 76 61 63 26 12 7 3 8 6 26 30 46 35 70 327 8 47 335 329 320 321 323
184 180 174 164 148 105 68 55 40 30 24 21 14 15 14 11 9 7 7 7 6 36 66 75 75 67 53 65 21 15 14 22 19 22 24 35 38 45 51 354 43 319 312 318 339 313 329
192 189 181 190 173 126 55 49 32 29 23 20 13 11 6 7 8 2 7 6 10 39 66 132 331 333 44 46 25 16 8 19 15 18 21 26 28 51 358 10 339 333 12 37 17 351 24
200 193 188 201 200 180 76 20 19 19 16 13 13 4 4 3 5 1 8 10 17 51 63 27 354 26 76 35 22 10 23 30 10 8 16 37 35 47 6 322 18 38 37 34 10 20 344
200 200 193 203 204 213 218 297 341 356 356 360 359 359 360 4 3 1 10 44 39 89 63 42 23 46 32 23 22 18 19 15 18 43 44 42 46 45 17 29 30 15 51 8 336 32 331
207 200 202 209 211 222 229 247 284 323 335 338 345 354 0 2 4 2 359 297 41 38 300 352 28 64 26 3 19 16 20 16 22 58 46 32 46 60 20 34 64 339 359 335 338 328 13
213 205 215 218 215 223 232 240 270 293 320 327 336 348 359 3 2 2 6 316 350 69 62 73 53 77 11 14 21 18 23 36 47 49 35 25 56 33 351 15 134 148 112 322 281 312 28
222 217 228 225 221 224 228 232 255 284 308 318 327 343 350 3 359 5 9 31 77 121 74 64 57 47 31 12 352 18 28 59 40 38 347 28 44 328 336 6 21 25 55 342 291 299 33
225 228 235 223 219 223 227 231 240 270 299 312 319 340 343 353 354 357 26 61 126 108 42 20 28 19 16 18 24 3 18 40 39 33 17 74 314 325 45 23 22 10 81 337 276 328 64
229 230 230 220 218 221 228 236 238 249 282 301 312 327 342 351 6 2 21 40 149 116 72 312 357 11 358 348 26 13 14 38 46 26 25 34 330 13 36 41 11 339 345 283 292 11 148
235 235 234 240 224 225 232 233 243 246 261 286 295 315 339 2 3 20 9 11 147 70 28 315 333 346 7 45 336 5 14 50 69 355 39 277 348 358 29 354 342 280 334 318 318 88 44
236 234 239 237 237 237 232 234 242 244 257 274 276 291 319 340 358 8 15 28 130 45 271 341 330 355 15 14 4 348 24 49 49 55 5 353 308 326 309 303 290 303 347 31 38 57 46
235 235 235 236 237 238 237 235 236 237 250 263 275 277 293 327 345 358 358 7 27 121 337 312 346 11 15 343 358 15 36 37 34 37 6 337 337 323 10 5 9 14 38 354 1 13 200
232 235 234 234 233 236 236 236 224 228 236 250 264 269 275 292 325 350 350 46 72 257 234 237 34 31 40 350 1 355 25 44 37 65 64 37 338 2 339 66 334 330 12 132 201 342 287
233 227 236 236 228 232 229 233 226 221 229 241 258 257 262 269 286 341 3 46 208 197 179 150 57 73 324 323 331 31 31 39 170 114 121 3 292 313 37 1 59 318 28 290 109 18 307
228 230 228 234 231 229 231 227 223 224 225 223 246 271 266 248 246 78 74 241 194 218 139 100 136 137 193 315 355 13 345 277 74 36 131 227 312 267 304 352 41 122 296 16 6 19 321
231 234 232 231 230 230 228 226 223 222 220 215 216 229 245 209 216 230 163 212 221 206 185 119 177 149 205 199 200 296 252 277 83 101 104 112 109 290 16 29 27 353 354 348 347 144 258
235 230 238 237 228 227 235 223 222 219 212 206 192 187 198 173 158 42 164 181 160 168 176 122 122 137 172 168 200 228 231 210 127 139 114 88 118 277 232 255 327 289 282 296 114 293 264
231 227 227 227 227 234 233 237 223 217 214 197 179 167 178 175 160 258 314 256 197 153 187 162 167 173 165 174 107 224 248 233 124 129 167 169 342 346 348 360 23 242 251 257 97 204 231
230 233 229 230 224 231 236 241 227 216 212 199 170 129 157 196 193 150 155 218 204 203 172 180 144 136 118 50 6 231 252 276 279 121 129 129 158 173 200 209 135 293 265 240 184 164 228
227 228 226 228 228 232 234 237 235 222 213 199 174 212 184 184 231 180 174 153 167 191 213 188 215 204 159 149 31 244 255 267 29 158 98 104 216 213 261 255 221 254 254 255 235 231 199
226 228 225 227 230 232 232 229 230 227 216 194 175 164 168 142 142 139 182 215 189 178 158 221 206 187 179 174 180 199 171 214 198 208 136 87 274 117 297 314 246 274 261 253 240 242 255
226 225 228 229 227 230 228 233 238 236 208 187 199 181 159 161 149 163 200 191 206 162 214 206 193 140 197 217 166 112 142 136 184 165 179 141 105 44 277 342 325 302 232 201 215 205 170
232 224 225 226 228 229 231 231 234 238 233 209 206 196 158 170 192 212 175 179 188 204 237 186 187 174 179 159 136 112 82 72 62 26 128 140 102 90 288 345 10 250 267 216 200 227 214
229 230 222 225 228 232 228 230 230 238 234 217 214 199 186 153 188 166 184 147 177 201 170 168 181 186 150 137 68 42 348 16 334 7 331 227 117 48 306 277 293 300 208 181 180 277 201
227 229 231 222 218 221 234 222 227 234 229 235 217 213 203 147 217 201 160 184 153 168 113 168 165 159 171 81 70 150 212 196 300 360 19 104 83 114 37 175 222 245 205 198 169 292 195
231 230 232 236 220 217 220 228 221 229 232 234 221 222 211 203 209 190 177 186 178 157 116 139 157 177 188 100 96 170 232 166 190 160 175 174 205 194 183 253 282 244 165 148 78 241 187
232 230 233 235 233 221 217 229 225 232 227 227 221 222 210 220 201 199 205 176 169 180 155 148 114 201 84 143 155 209 158 205 127 188 174 173 158 186 135 214 287 174 122 179 249 265 214
229 226 225 239 236 226 222 225 227 226 228 226 214 222 221 215 216 202 210 213 218 214 190 171 190 164 176 113 231 103 154 123 163 245 146 240 193 179 188 214 231 188 208 213 285 277 255
Wind_Speed_850mb
20 15 10 7 6 7 7 9 11 12 13 14 15 17 19 21 22 23 25 24 23 20 20 21 17 13 13 21 21 34 37 32 30 25 31 21 30 10 7 7 8 7 11 19 23 20 12
20 17 12 8 6 5 5 8 10 10 12 15 16 18 19 21 23 24 24 22 20 16 23 27 36 24 19 17 32 34 34 29 27 29 25 28 17 13 6 6 7 12 13 24 19 18 13
21 19 14 10 7 3 3 5 8 10 11 12 14 16 18 20 21 23 22 18 18 17 10 7 6 15 46 26 35 32 27 28 25 26 27 19 17 15 8 4 16 7 9 7 30 29 11
24 21 16 13 8 4 1 3 6 8 9 10 12 13 16 20 22 22 20 17 13 16 14 10 8 11 15 30 35 35 21 14 18 15 18 16 14 10 10 12 7 10 8 7 9 35 17
27 25 19 16 11 7 3 1 3 6 7 8 10 12 16 19 21 22 15 17 16 12 22 21 16 9 10 34 48 42 31 31 19 13 21 16 13 14 18 7 8 15 6 10 12 17 9
28 27 21 17 13 10 6 4 4 6 7 7 9 12 15 18 20 21 13 3 21 19 4 7 20 8 25 28 45 48 20 32 20 8 10 18 13 8 11 15 5 8 8 7 5 13 11
31 28 22 21 17 14 10 6 7 7 8 8 10 12 13 16 18 18 15 5 3 4 41 24 18 10 12 24 37 49 28 23 20 24 11 17 16 12 9 7 4 5 2 6 7 4 11
34 28 25 25 22 19 14 10 8 9 10 9 9 11 13 14 15 19 16 7 9 8 18 17 17 24 16 21 14 52 29 14 24 11 12 12 12 14 7 8 6 6 3 9 9 7 6
40 37 34 31 27 24 19 15 11 8 10 11 10 11 13 14 10 15 21 16 17 11 4 8 16 13 15 14 16 34 33 12 15 13 14 10 6 16 8 12 12 5 5 5 7 12 5
40 43 41 36 32 28 24 19 14 10 10 11 12 11 11 15 7 16 17 13 11 5 9 13 13 13 18 9 9 31 30 10 12 7 6 4 13 10 11 7 8 4 2 6 10 7 3
46 40 36 37 35 32 29 24 17 14 10 10 11 11 12 13 9 11 13 12 6 4 8 6 10 10 13 10 11 21 30 12 7 8 6 6 13 11 10 7 6 8 11 6 3 4 5
46 47 42 35 31 33 33 29 24 16 12 12 13 10 9 10 11 12 14 7 4 12 8 11 11 16 9 17 11 14 15 15 8 6 8 4 7 4 4 7 2 12 5 9 7 4 7
50 51 48 43 37 33 36 33 30 24 17 15 14 11 8 8 8 11 12 2 10 11 5 12 6 9 5 11 10 14 8 18 9 10 14 14 7 10 10 8 10 15 10 6 9 9 7
58 56 54 50 42 38 35 35 31 27 23 19 14 11 9 7 8 10 12 9 9 4 9 2 4 5 8 12 9 13 5 7 10 10 7 6 12 12 16 7 7 8 6 7 5 5 8
60 54 51 50 45 43 39 35 33 30 27 21 16 12 11 8 6 6 7 8 13 12 7 10 6 10 7 5 3 8 8 2 2 4 10 7 10 9 5 4 4 13 8 5 6 6 3
61 62 55 51 53 49 45 41 38 35 33 24 16 11 13 9 7 1 7 8 3 7 8 6 7 5 4 5 5 5 6 2 4 5 4 3 10 4 9 5 3 5 7 7 6 6 7
70 69 68 57 51 51 50 48 44 42 37 27 17 6 7 11 6 1 6 12 7 8 3 7 10 7 5 4 2 3 4 4 3 3 8 1 4 12 5 7 5 8 7 5 2 2 2
70 66 59 62 62 59 56 58 54 49 43 35 17 3 9 16 3 3 4 11 8 10 6 4 7 6 9 9 5 4 7 6 4 8 5 4 2 9 14 9 2 4 5 2 6 10 3
68 68 64 59 61 62 60 61 64 59 58 49 16 10 13 24 5 3 4 3 8 7 7 8 9 5 4 9 1 6 7 2 5 5 8 9 3 7 13 9 5 2 3 3 3 1 7
66 67 67 66 68 64 63 58 74 68 63 56 16 5 8 16 8 8 8 6 5 11 9 8 8 10 6 3 3 5 5 3 3 5 9 8 4 10 10 9 4 6 6 7 4 3 4
74 68 68 68 68 67 63 55 59 71 73 68 22 9 12 7 11 12 11 14 8 10 7 13 3 9 10 5 4 6 3 4 3 10 5 6 5 4 13 16 6 14 17 17 21 15 10
84 76 71 71 69 64 61 63 62 74 85 74 26 17 15 9 10 17 12 11 18 7 16 10 11 14 14 12 15 13 12 8 8 5 3 3 5 3 9 10 7 20 26 22 24 25 19
90 86 77 76 74 70 64 65 66 89 93 39 42 26 16 13 13 8 11 11 15 17 19 9 24 12 15 19 15 7 12 8 9 11 8 6 5 6 10 6 11 13 18 28 16 7 12
72 97 89 79 78 75 73 70 77 91 94 79 73 50 17 6 13 9 10 23 12 22 3 8 13 12 8 17 28 17 13 10 4 2 3 8 6 2 8 11 7 10 5 6 14 11 22
60 77 102 89 81 77 78 76 81 88 89 101 76 63 28 6 24 10 19 9 12 14 5 11 12 10 27 21 7 10 9 12 8 7 4 1 6 3 1 6 15 9 9 12 14 14 29
70 62 73 105 87 81 74 74 79 98 83 93 97 77 38 22 21 32 20 26 9 8 4 5 12 39 24 9 6 9 8 10 6 11 5 8 8 7 3 2 9 10 5 12 5 9 22
68 70 70 70 111 89 68 81 89 94 89 93 95 102 64 22 24 48 17 25 26 18 6 12 20 16 14 5 4 6 7 2 5 16 12 8 8 8 5 9 18 15 8 16 7 10 20
61 69 67 70 78 119 87 74 89 93 94 111 104 92 88 24 32 57 56 37 33 37 10 22 14 8 4 4 8 7 6 12 3 6 13 16 17 9 6 7 14 24 16 13 8 6 14
46 65 67 51 62 95 120 72 88 92 82 103 79 93 89 48 20 59 63 55 58 59 56 61 16 18 28 6 2 6 4 4 8 6 2 7 14 13 22 14 9 59 16 42 7 14 13
Wind_Direction_850mb
174 174 165 141 115 91 68 55 41 31 28 25 19 19 17 14 10 8 6 5 5 2 37 42 52 76 61 63 26 12 7 3 8 6 26 30 46 35 70 327 8 47 335 329 320 321 323
184 180 174 164 148 105 68 55 40 30 24 21 14 15 14 11 9 7 7 7 6 36 66 75 75 67 53 65 21 15 14 22 19 22 24 35 38 45 51 354 43 319 312 318 339 313 329
192 189 181 190 173 126 55 49 32 29 23 20 13 11 6 7 8 2 7 6 10 39 66 132 331 333 44 46 25 16 8 19 15 18 21 26 28 51 358 10 339 333 12 37 17 351 24
200 193 188 201 200 180 76 20 19 19 16 13 13 4 4 3 5 1 8 10 17 51 63 27 354 26 76 35 22 10 23 30 10 8 16 37 35 47 6 322 18 38 37 34 10 20 344
200 200 193 203 204 213 218 297 341 356 356 360 359 359 360 4 3 1 10 44 39 89 63 42 23 46 32 23 22 18 19 15 18 43 44 42 46 45 17 29 30 15 51 8 336 32 331
207 200 202 209 211 222 229 247 284 323 335 338 345 354 0 2 4 2 359 297 41 38 300 352 28 64 26 3 19 16 20 16 22 58 46 32 46 60 20 34 64 339 359 335 338 328 13
213 205 215 218 215 223 232 240 270 293 320 327 336 348 359 3 2 2 6 316 350 69 62 73 53 77 11 14 21 18 23 36 47 49 35 25 56 33 351 15 134 148 112 322 281 312 28
222 217 228 225 221 224 228 232 255 284 308 318 327 343 350 3 359 5 9 31 77 121 74 64 57 47 31 12 352 18 28 59 40 38 347 28 44 328 336 6 21 25 55 342 291 299 33
225 228 235 223 219 223 227 231 240 270 299 312 319 340 343 353 354 357 26 61 126 108 42 20 28 19 16 18 24 3 18 40 39 33 17 74 314 325 45 23 22 10 81 337 276 328 64
229 230 230 220 218 221 228 236 238 249 282 301 312 327 342 351 6 2 21 40 149 116 72 312 357 11 358 348 26 13 14 38 46 26 25 34 330 13 36 41 11 339 345 283 292 11 148
235 235 234 240 224 225 232 233 243 246 261 286 295 315 339 2 3 20 9 11 147 70 28 315 333 346 7 45 336 5 14 50 69 355 39 277 348 358 29 354 342 280 334 318 318 88 44
236 234 239 237 237 237 232 234 242 244 257 274 276 291 319 340 358 8 15 28 130 45 271 341 330 355 15 14 4 348 24 49 49 55 5 353 308 326 309 303 290 303 347 31 38 57 46
235 235 235 236 237 238 237 235 236 237 250 263 275 277 293 327 345 358 358 7 27 121 337 312 346 11 15 343 358 15 36 37 34 37 6 337 337 323 10 5 9 14 38 354 1 13 200
232 235 234 234 233 236 236 236 224 228 236 250 264 269 275 292 325 350 350 46 72 257 234 237 34 31 40 350 1 355 25 44 37 65 64 37 338 2 339 66 334 330 12 132 201 342 287
233 227 236 236 228 232 229 233 226 221 229 241 258 257 262 269 286 341 3 46 208 197 179 150 57 73 324 323 331 31 31 39 170 114 121 3 292 313 37 1 59 318 28 290 109 18 307
228 230 228 234 231 229 231 227 223 224 225 223 246 271 266 248 246 78 74 241 194 218 139 100 136 137 193 315 355 13 345 277 74 36 131 227 312 267 304 352 41 122 296 16 6 19 321
231 234 232 231 230 230 228 226 223 222 220 215 216 229 245 209 216 230 163 212 221 206 185 119 177 149 205 199 200 296 252 277 83 101 104 112 109 290 16 29 27 353 354 348 347 144 258
235 230 238 237 228 227 235 223 222 219 212 206 192 187 198 173 158 42 164 181 160 168 176 122 122 137 172 168 200 228 231 210 127 139 114 88 118 277 232 255 327 289 282 296 114 293 264
231 227 227 227 227 234 233 237 223 217 214 197 179 167 178 175 160 258 314 256 197 153 187 162 167 173 165 174 107 224 248 233 124 129 167 169 342 346 348 360 23 242 251 257 97 204 231
230 233 229 230 224 231 236 241 227 216 212 199 170 129 157 196 193 150 155 218 204 203 172 180 144 136 118 50 6 231 252 276 279 121 129 129 158 173 200 209 135 293 265 240 184 164 228
227 228 226 228 228 232 234 237 235 222 213 199 174 212 184 184 231 180 174 153 167 191 213 188 215 204 159 149 31 244 255 267 29 158 98 104 216 213 261 255 221 254 254 255 235 231 199
226 228 225 227 230 232 232 229 230 227 216 194 175 164 168 142 142 139 182 215 189 178 158 221 206 187 179 174 180 199 171 214 198 208 136 87 274 117 297 314 246 274 261 253 240 242 255
226 225 228 229 227 230 228 233 238 236 208 187 199 181 159 161 149 163 200 191 206 162 214 206 193 140 197 217 166 112 142 136 184 165 179 141 105 44 277 342 325 302 232 201 215 205 170
232 224 225 226 228 229 231 231 234 238 233 209 206 196 158 170 192 212 175 179 188 204 237 186 187 174 179 159 136 112 82 72 62 26 128 140 102 90 288 345 10 250 267 216 200 227 214
229 230 222 225 228 232 228 230 230 238 234 217 214 199 186 153 188 166 184 147 177 201 170 168 181 186 150 137 68 42 348 16 334 7 331 227 117 48 306 277 293 300 208 181 180 277 201
227 229 231 222 218 221 234 222 227 234 229 235 217 213 203 147 217 201 160 184 153 168 113 168 165 159 171 81 70 150 212 196 300 360 19 104 83 114 37 175 222 245 205 198 169 292 195
231 230 232 236 220 217 220 228 221 229 232 234 221 222 211 203 209 190 177 186 178 157 116 139 157 177 188 100 96 170 232 166 190 160 175 174 205 194 183 253 282 244 165 148 78 241 187
232 230 233 235 233 221 217 229 225 232 227 227 221 222 210 220 201 199 205 176 169 180 155 148 114 201 84 143 155 209 158 205 127 188 174 173 158 186 135 214 287 174 122 179 249 265 214
229 226 225 239 236 226 222 225 227 226 228 226 214 222 221 215 216 202 210 213 218 214 190 171 190 164 176 113 231 103 154 123 163 245 146 240 193 179 188 214 231 188 208 213 285 277 255